TimeEST,TemperatureF,Dew PointF,Humidity,Sea Level PressureIn,VisibilityMPH,Wind Direction,Wind SpeedMPH,Gust SpeedMPH,PrecipitationIn,Events,Conditions,WindDirDegrees,DateUTC
12:52 AM,28.0,26.1,92,30.31,8.0,Calm,Calm,-,N/A,,Clear,0,2013-11-17 05:52:00
1:52 AM,28.0,26.1,92,30.31,8.0,Calm,Calm,-,N/A,,Clear,0,2013-11-17 06:52:00
2:52 AM,28.9,27.0,92,30.30,8.0,Calm,Calm,-,N/A,,Clear,0,2013-11-17 07:52:00
3:52 AM,28.0,26.1,92,30.30,7.0,Calm,Calm,-,N/A,,Clear,0,2013-11-17 08:52:00
4:52 AM,30.0,28.0,92,30.31,9.0,Calm,Calm,-,N/A,,Mostly Cloudy,0,2013-11-17 09:52:00
5:52 AM,32.0,28.9,88,30.30,10.0,Calm,Calm,-,N/A,,Overcast,0,2013-11-17 10:52:00
6:52 AM,33.1,30.0,89,30.29,10.0,Calm,Calm,-,N/A,,Overcast,0,2013-11-17 11:52:00
7:39 AM,35.1,30.9,85,30.26,10.0,Calm,Calm,-,N/A,,Overcast,0,2013-11-17 12:39:00
7:52 AM,35.1,30.9,85,30.30,10.0,Calm,Calm,-,N/A,,Overcast,0,2013-11-17 12:52:00
8:52 AM,37.0,33.1,86,30.28,3.0,Calm,Calm,-,0.00,Rain,Light Rain,0,2013-11-17 13:52:00
9:52 AM,37.9,35.1,89,30.28,8.0,Calm,Calm,-,0.00,,Overcast,0,2013-11-17 14:52:00
10:52 AM,41.0,37.0,86,30.25,8.0,Calm,Calm,-,N/A,,Overcast,0,2013-11-17 15:52:00
11:45 AM,43.0,39.0,86,30.21,8.0,Calm,Calm,-,N/A,,Overcast,0,2013-11-17 16:45:00
11:52 AM,43.0,39.0,86,30.22,8.0,Calm,Calm,-,N/A,,Overcast,0,2013-11-17 16:52:00
12:52 PM,45.0,41.0,86,30.19,9.0,Calm,Calm,-,N/A,,Overcast,0,2013-11-17 17:52:00
1:52 PM,48.0,43.0,83,30.15,9.0,Calm,Calm,-,N/A,,Overcast,0,2013-11-17 18:52:00
2:52 PM,48.9,44.1,83,30.14,10.0,Calm,Calm,-,N/A,,Overcast,0,2013-11-17 19:52:00
3:52 PM,48.9,44.1,83,30.12,9.0,Calm,Calm,-,N/A,,Overcast,0,2013-11-17 20:52:00
4:52 PM,48.0,44.1,86,30.07,10.0,SE,5.8,-,N/A,,Overcast,130,2013-11-17 21:52:00
5:07 PM,48.9,45.0,86,30.05,10.0,NW,3.5,-,N/A,,Overcast,310,2013-11-17 22:07:00
5:52 PM,53.1,48.9,86,30.05,10.0,SE,4.6,-,N/A,,Overcast,140,2013-11-17 22:52:00
6:05 PM,53.1,50.0,89,30.03,10.0,SE,5.8,-,N/A,,Overcast,130,2013-11-17 23:05:00
6:52 PM,52.0,51.1,97,30.03,5.0,East,4.6,-,0.00,Rain,Light Rain,90,2013-11-17 23:52:00
7:52 PM,52.0,51.1,97,29.99,5.0,SE,5.8,-,0.00,,Overcast,130,2013-11-18 00:52:00
8:07 PM,53.1,52.0,96,29.97,6.0,SSE,4.6,-,N/A,,Overcast,150,2013-11-18 01:07:00
8:52 PM,53.1,52.0,96,29.96,10.0,Calm,Calm,-,0.00,Rain,Light Rain,0,2013-11-18 01:52:00
9:34 PM,54.0,53.1,97,29.92,7.0,SSE,3.5,-,0.01,Rain,Light Rain,160,2013-11-18 02:34:00
9:52 PM,54.0,53.1,97,29.91,6.0,SE,3.5,-,0.02,Rain,Light Rain,140,2013-11-18 02:52:00
10:52 PM,55.0,54.0,96,29.87,6.0,South,8.1,-,0.01,Rain,Light Rain,170,2013-11-18 03:52:00
11:39 PM,55.9,55.0,97,29.81,10.0,SSE,8.1,-,0.00,,Overcast,150,2013-11-18 04:39:00
11:52 PM,55.9,55.0,97,29.81,10.0,SSE,5.8,-,0.00,Rain,Light Rain,160,2013-11-18 04:52:00